This demonstration page uses our WeatherBlox Daily Observations layout. Learn more.

Left ArrowRight Arrow

44.8408, -93.29828

Hourly Observations for April 26, 2017

Temp ( °F °C ) Dew Point ( °F °C ) Humidity (%) Winds ( mph kmh ) Pressure ( in mb ) Visibility ( mi km ) Precip ( " mm )
12:53 am 00:53 Cloudy 47 8.3 44 6.7 90 90 NNE 16 26 29.53 1000 10 16 0.00 0.00
1:53 am 01:53 Cloudy 46 7.8 42 5.6 86 86 NNE 14 22 29.51 999 10 16 0.00 0.00
2:53 am 02:53 Cloudy with Light Rain 44 6.7 41 5 89 89 NNE 13 20 29.50 999 10 16 0.02 0.51
3:53 am 03:53 Cloudy with Light Rain 42 5.6 39 3.9 89 89 N 12 19 29.49 999 9 14 0.06 1.52
4:53 am 04:53 Cloudy with Light Rain 40 4.4 37 2.8 89 89 N 14 22 29.49 999 10 16 0.05 1.27
5:53 am 05:53 Cloudy with Light Rain 38 3.3 35 1.7 89 89 NNE 17 28 29.49 999 9 14 0.05 1.27
6:09 am 06:09 Cloudy with Light Rain 37 2.8 35 1.7 93 93 N 15 24 29.50 999 9 14 0.03 0.76
6:53 am 06:53 Cloudy with Light Rain 36 2.2 33 0.6 89 89 N 12 19 29.50 999 7 11 0.07 1.78
7:15 am 07:15 Cloudy with Light Rain 36 2.2 33 0.6 89 89 N 14 22 29.53 1000 7 11 0.03 0.76
7:53 am 07:53 Cloudy with Light Rain 36 2.2 33 0.6 89 89 N 14 22 29.51 999 7 11 0.08 2.03
8:14 am 08:14 Cloudy with Light Rain 36 2 34 1 93 93 N 15 24 29.53 1000 7 11 0.00 0.00
8:53 am 08:53 Cloudy with Light Rain 36 2.2 33 0.6 89 89 N 15 24 29.52 1000 9 14 0.04 1.02
9:53 am 09:53 Cloudy with Light Rain 37 2.8 33 0.6 86 86 N 13 20 29.52 1000 10 16 0.01 0.25
10:53 am 10:53 Cloudy 37 2.8 33 0.6 86 86 N 13 20 29.53 1000 10 16 0.00 0.03
11:53 am 11:53 Cloudy 38 3.3 33 0.6 83 83 N 12 19 29.54 1000 10 16 0.00 0.00
12:53 pm 12:53 Cloudy 39 3.9 34 1.1 82 82 NNE 14 22 29.53 1000 10 16 0.00 0.00
1:53 pm 13:53 Cloudy 39 3.9 34 1.1 82 82 NNW 13 20 29.54 1000 10 16 0.00 0.00
2:20 pm 14:20 Cloudy 39 4 34 1 81 81 NNW 10 17 29.56 1001 10 16 0.00 0.00
2:53 pm 14:53 Cloudy 40 4.4 33 0.6 77 77 NNW 10 17 29.56 1001 10 16 0.00 0.00
3:03 pm 15:03 Cloudy 40 4.4 33 0.6 77 77 NNW 13 20 29.59 1002 10 16 0.00 0.00
3:53 pm 15:53 Cloudy 40 4.4 32 0 73 73 NNW 14 22 29.56 1001 10 16 0.00 0.00
4:53 pm 16:53 Cloudy 41 5 32 0 70 70 NNW 10 17 29.56 1001 10 16 0.00 0.00
5:19 pm 17:19 Cloudy 41 5 32 0 70 70 N 12 19 29.59 1002 10 16 0.00 0.00
5:31 pm 17:31 Cloudy 40 4.4 32 0 73 73 N 14 22 29.59 1002 10 16 0.00 0.00
5:53 pm 17:53 Cloudy 40 4.4 32 0 73 73 NNW 10 17 29.57 1001 10 16 0.00 0.00
6:53 pm 18:53 Cloudy 40 4.4 32 0 73 73 NNW 12 19 29.59 1002 10 16 0.00 0.00
7:53 pm 19:53 Cloudy with Drizzle 39 3.9 32 0 76 76 N 12 19 29.59 1002 10 16 0.00 0.03
8:53 pm 20:53 Cloudy 38 3.3 31 -0.6 76 76 N 12 19 29.61 1003 10 16 0.00 0.03
9:12 pm 21:12 Cloudy 37 3 32 0 81 81 NNW 12 19 29.62 1003 10 16 0.00 0.00
9:24 pm 21:24 Cloudy 37 2.8 32 0 82 82 N 13 20 29.62 1003 10 16 0.00 0.00
9:43 pm 21:43 Cloudy 37 2.8 32 0 82 82 NNW 14 22 29.62 1003 10 16 0.00 0.00
9:53 pm 21:53 Cloudy 37 2.8 31 -0.6 79 79 N 14 22 29.61 1003 10 16 0.00 0.00
10:20 pm 22:20 Cloudy 37 2.8 31 -0.6 79 79 NNW 8 13 29.62 1003 10 16 0.00 0.00
10:53 pm 22:53 Cloudy 37 2.8 31 -0.6 79 79 N 10 17 29.60 1003 10 16 0.00 0.00
11:53 pm 23:53 Cloudy 36 2.2 30 -1.1 79 79 NNW 8 13 29.62 1003 10 16 0.00 0.00

Powered by AerisWeather